Regional Weather Roundup
Issued by NWS Charleston, SC

Current Version | Previous Version | Text Only | Print | Product List | Glossary Off
Versions: 1 2 3 4 5 6 7 8 9 10 11 12 13 14 15 16 17 18 19 20 21 22 23 24 25 26 27 28 29 30 31 32 33 34 35 36 37 38 39 40 41 42 43 44 45 46 47 48 49 50

000
ASUS42 KCHS 042227
RWRCHS

REGIONAL WEATHER ROUNDUP
NATIONAL WEATHER SERVICE CHARLESTON SC
500 PM EST SUN DEC 04 2016

NOTE: "FAIR" INDICATES FEW OR NO CLOUDS BELOW 12,000 FEET WITH NO
SIGNIFICANT WEATHER AND/OR OBSTRUCTIONS TO VISIBILITY.

NOT ALL STATIONS ARE QUALITY CONTROLLED. USE DATA WITH CAUTION...
ESPECIALLY DEWPOINT OBSERVATIONS.

SCZ027-030-031-034>040-042>050-042300-
...SOUTHEAST SOUTH CAROLINA...

CITY           SKY/WX    TMP DP  RH WIND       PRES   REMARKS
N CHARLESTON   CLOUDY    57  49  74 NE10      30.11S
WATERFRONT PRK   N/A     58  53  83 NE10      30.09F
MOUNT PLEASANT CLOUDY    55  50  82 N5        30.11S
JOHNS ISLAND   CLOUDY    57  52  82 NE13      30.10S
PINOPOLIS        N/A     52  46  82 NE14      30.04F
MONCKS CORNER  CLOUDY    48  43  81 E6        30.11F
SUMMERVILLE    CLOUDY    52  48  87 CALM      30.10F
BEAUFORT MCAS  CLOUDY    61  54  77 E6        30.08S
BEAUFORT ARPT  CLOUDY    59  55  88 E7        30.06F
HILTON HEAD IS CLOUDY    63  57  82 NE5G12    30.06F
WALTERBORO     CLOUDY    54  46  76 NE6       30.09F
ALLENDALE      CLOUDY    50  46  87 N5        30.09R

...SOUTHERN MIDLANDS AND PEE DEE...

CITY           SKY/WX    TMP DP  RH WIND       PRES   REMARKS
GEORGETOWN     NOT AVBL
KINGSTREE      CLOUDY    45  41  87 NE3       30.14F
ORANGEBURG     CLOUDY    48  43  82 E5        30.11F
BARNWELL       NOT AVBL
AIKEN          DRIZZLE   43  43 100 NE8       30.13F
MANNING        NOT AVBL
COLUMBIA       LGT RAIN  47  42  83 NE7       30.12F
SUMTER         LGT RAIN  46  41  83 E6        30.11F
FLORENCE       CLOUDY    47  42  83 E7        30.16F
MYRTLE BEACH   CLOUDY    50  37  62 NE9       30.17F
N MYRTLE BEACH CLOUDY    48  40  73 NE7       30.15F

$$

GAZ063-065-086>088-099>101-113>116-118-119-134>141-150-042300-
...SOUTHEAST GEORGIA...

CITY           SKY/WX    TMP DP  RH WIND       PRES   REMARKS
SAVANNAH ARPT  CLOUDY    63  54  72 NE9       30.05F
HUNTER AAF     CLOUDY    63  60  88 E5        30.02F
FORT STEWART   CLOUDY    63  57  82 CALM      30.01F
STATESBORO     CLOUDY    60  55  83 NE3       30.05F
SYLVANIA       CLOUDY   N/A N/A N/A NE6       30.08S
CLAXTON        CLOUDY    61  59  94 NE5       30.04F

...CSRA...CENTRAL AND FAR SOUTHEAST GEORGIA...

CITY           SKY/WX    TMP DP  RH WIND       PRES   REMARKS
THOMSON        CLOUDY    46  46 100 CALM      30.12F
AUGUSTA-BUSH   RAIN      48  44  86 NE5       30.11F FOG
AUGUSTA-DANIEL LGT RAIN  47  43  86 NE8       30.09F
SWAINSBORO     CLOUDY    52  46  82 N3        30.05F
VIDALIA        CLOUDY    63  59  88 E8        30.01F
EASTMAN        CLOUDY    58  41  54 NE3       30.04S
HAZLEHURST     MOCLDY    66  61  83 E6        29.97F
ALMA           MOCLDY    69  61  75 E5        29.99F
WAYCROSS       MOCLDY    74  66  76 SE7       29.98F
JESUP          CLOUDY    68  64  88 CALM      30.02S
BAXLEY         FAIR      66  64  94 E6        29.99F
BRUNSWICK      MOCLDY    72  64  78 SE8       30.02F
SAINT SIMONS   MOCLDY    69  63  81 SE7       30.02F

$$

SCZ027-028-034-036>038-045-046-048>050-GAZ119-141-042300-
...LAKE AND SUPPLEMENTAL COASTAL OBSERVATIONS...

STATION/POSITION TIME  TEMP    WIND        PRES    WAVE   SWELL
                       AIR SEA DIR/SP/G            HT/PER HT/PER/DIR
                 (UTC) (F)     (DEG/KT/KT) (MB)    (FT/S) (FT/S/D)
WINYAH BAY       2145   53      60/ 12     1020.0F
LAKE MURRAY      2220   46      40/  3/  6 1019.6
ACE BASIN NERRS  2145   60      60/  4     1018.0F
FORT PULASKI     2200   63 62   60/  8/ 10 1017.6
SAPELO ISLAND    2200   69     130/  7     1017.0

$$

ANZ835-935-AMZ111-154-330-350-352-354-370-450-454-472-042300-
...C-MAN AND BUOY OBSERVATIONS...

STATION/POSITION TIME  TEMP    WIND        PRES    WAVE   SWELL
                       AIR SEA DIR/SP/G            HT/PER HT/PER/DIR
                 (UTC) (F)     (DEG/KT/KT) (MB)    (FT/S) (FT/S/D)
BUOY 41004       2150   70 74  130/ 12/ 16 1018.7F   4/ 5   2/110/ 8
BUOY 41008       2150   67 65  120/ 12/ 14 1016.8F   3/ 5   2/ 80/ 6
FOLLY BEACH CMAN 2200   58      50/ 20/ 22 1019.4F
CAPERS NEARSHORE 2208   59 61   60/ 19/ 27 1018.9F
FRIPP NEARSHORE  2208   62 62   50/ 12/ 16 1017.8F


STATION/POSITION TIME  TEMP    WIND        PRES    WAVE   SWELL
                       AIR SEA DIR/SP/G            HT/PER HT/PER/DIR
                 (UTC) (F)     (DEG/KT/KT) (MB)    (FT/S) (FT/S/D)
5E ST. MARYS GA  2200      66                N/A     3/ 5
FRYING PAN BUOY  2200   62 74   50/ 16/ 19 1021.0
BUOY 41025       2150   55 75   10/ 10/ 14 1023.3F   4/ 8   5/ 60/ 8
CAPE LOOKOUT NC  2200   49      10/  8/ 10 1022.6F
BUOY 41002       2150   66 73  130/  4/  6 1021.6R   4/ 9   3/ 10/ 9
BUOY 41010       NOT AVBL
ST AUGUSTINE FL  2200   70 68  140/ 14/ 15 1017.2F


$$



USA.gov is the U.S. government's official web portal to all federal, state and local government web resources and services.